Back to catalog

COSMOS 764

AliveMilitaryLEO
NORAD 8288·PAYLOAD·🇷🇺 Russia

Launched Sep 17, 1975 from Plesetsk Cosmodrome

Loading…

Next Passes (next 24 hours)

TLE

FreshSource: Space-Track

Epoch: Sep 14, 2026, 09:24 UTC

1 08288U 75086D   26257.39178427 -.00000024  00000-0 -66703-4 0  9999
2 08288  74.0072 225.4241 0029357 123.4666 310.9517 12.41091762310319

Track COSMOS 764 in real time with AllMySat

Download on the App Store